默认 日期 大小 文件数 浏览量 最新下载 xml
army磁力链接相关资源由用户搜索指令自动获取,结果来源于网络,本站不存储任何资料,亦不承担任何责任,请于24小时内删除,搜索到7458个磁力,显示前4000条数据,用时4ms。
    {"Downloaded from www.ettv.to .txt": 199, "dads.army.the.lost.episodes.e02.hdtv.x264-mtb[ettv].mkv": 290763426}
创建时间: 2019-08-30 04:56:23 大小:277.29 MB 文件数量:2 热度:8 最近下载:2022-11-12 12:39:11
    {"NFO.nfo": 1530, "READ ME.txt": 394, "duplex-armyoftwo-dc.r00": 100000000, "duplex-armyoftwo-dc.r01": 100000000, "duplex-armyoftwo-dc.r02": 100000000, "duplex-armyoftwo-dc.r03": 100000000, "duplex-armyoftwo-dc.r04": 100000000, "duplex-armyoftwo-dc.r05": ...
创建时间: 2019-08-30 12:52:01 大小:7.53 GB 文件数量:83 热度:7 最近下载:2025-01-31 14:30:02
    {"icon.ico": 9662, "Setup.exe": 1353913, "2xDVD5.bat": 265, "Redistable": {"dxwebsetup.exe": 288088, "vcredist_x64.exe": 5718872, "vcredist_x86.exe": 4129616}, "data1.pack": 804173054, "data2.pack": 1145084753, "data3.pack": 3269475870, "data4.pack": ...
创建时间: 2019-08-30 15:58:10 大小:4.94 GB 文件数量:12 热度:10 最近下载:2025-01-14 16:42:07
    {"army_men_rts_manual.zip": 976790, "setup_army_men_rts_1.0_hotfix_(16064).exe": 302682320}
创建时间: 2019-08-30 19:46:55 大小:289.59 MB 文件数量:2 热度:4 最近下载:2022-11-15 18:46:39
    {"RARBG.txt": 30, "RARBG_DO_NOT_MIRROR.exe": 99, "dads.army.the.lost.episodes.e02.hdtv.x264-mtb.mkv": 290763426, "dads.army.the.lost.episodes.e02.hdtv.x264-mtb.nfo": 12741}
创建时间: 2019-08-30 22:41:32 大小:277.31 MB 文件数量:4 热度:5 最近下载:2022-11-12 09:40:07
    {"Sample.mkv": 27132728, "Army.Of.One.2016.720p.BRRiP.x264.AC3-MAJESTIC.mkv": 2460590783, "Army.Of.One.2016.720p.BRRiP.x264.AC3-MAJESTIC.nfo": 1025}
创建时间: 2019-08-31 03:12:00 大小:2.32 GB 文件数量:3 热度:4 最近下载:2022-11-12 09:51:44
    {"INFO.nfo": 976, "2008 - Bloopers.mkv": 24532686, "2004 - Deleted Scenes + commentary.mkv": 45270791, "Hellboy 2004 DC BDRip 1080p DTS-HighCode.mkv": 14812921160, "Hellboy II The Golden Army 2008 BDRip 1080p DTS-HighCode.mkv": 14541745397}
创建时间: 2019-08-31 03:53:53 大小:27.4 GB 文件数量:5 热度:11 最近下载:2024-12-22 03:24:03
    {"logo.png": 329591, "Reklama.png": 820846, "Reklama radia.png": 1272041, "Shadows-Torrents.pl - Darmowe Torrenty.url": 54, "Shadows-Torrents.pl_Darmowe torrenty!!.txt": 4922, "Misja Niewykonalna (2016) PL.480p.BDRip.Xvid.AC3-KiT.avi": 1523990528}
创建时间: 2019-08-31 04:25:14 大小:1.42 GB 文件数量:6 热度:5 最近下载:2024-11-02 23:04:02
    {"RARBG.txt": 30, "RARBG_DO_NOT_MIRROR.exe": 99, "dads.army.the.lost.episodes.e03.720p.hdtv.x264-mtb.mkv": 664846762, "dads.army.the.lost.episodes.e03.720p.hdtv.x264-mtb.nfo": 12741}
创建时间: 2019-08-31 11:08:56 大小:634.06 MB 文件数量:4 热度:6 最近下载:2025-03-14 00:38:03
    {"RARBG.txt": 30, "RARBG_DO_NOT_MIRROR.exe": 99, "dads.army.the.lost.episodes.e03.1080p.hdtv.x264-mtb.mkv": 1438144602, "dads.army.the.lost.episodes.e03.1080p.hdtv.x264-mtb.nfo": 12741}
创建时间: 2019-08-31 12:53:34 大小:1.34 GB 文件数量:4 热度:6 最近下载:2025-01-26 09:59:04
    {"The Freedom Army.pdf": 498170, "The Freedom Army.epub": 136155}
创建时间: 2019-08-31 16:38:07 大小:619.46 KB 文件数量:2 热度:4 最近下载:2022-11-12 10:43:03
    {"02 - Space.mp3": 6562794, "04 - Purity.mp3": 9215999, "12 - Vanity.mp3": 10595264, "03 - Innocence.mp3": 9363956, "05 - Whirlwind.mp3": 8140172, "06 - Marrakesh.mp3": 6189138, "10 - Lurhstaap.mp3": 8843179, "01 - Get Me Out.mp3": 6379728, "09 - Eleven ...
创建时间: 2019-08-31 17:05:53 大小:90.18 MB 文件数量:13 热度:5 最近下载:2022-11-12 10:26:39
    {"Army wives 2x13 Porti sicuri.avi": 367337472, "Army wives 2x14 Immunita diplomatica.avi": 367265792, "Army wives 2x15 Grazie per avermi ascoltato.avi": 367265792}
创建时间: 2019-08-31 17:35:48 大小:1.03 GB 文件数量:3 热度:4 最近下载:2022-11-15 18:57:16
    ... Incredible.mp3": 5767592, "05- Army Of The Pharaohs- Rare Mix ... Heavyweights.mp3": 3269868, "14- Army Of The Pharaohs- Rare Mix ... Freestyle.mp3": 2068027, "08- Army Of The Pharaohs- Rare Mix ... KingSyze Freestyle.mp3": 1541398, "17- Army Of The Pharaohs- Rare Mix ...
创建时间: 2019-08-31 18:49:24 大小:85.27 MB 文件数量:20 热度:5 最近下载:2025-03-17 07:50:02
    ... - Outro.mp3": 865154, "03 - The Army.mp3": 5951726, "07 - Speak Now ... Cut.mp3": 6201121, "12 - The Army .mp3": 6005715, "18 - Speak Now ...
创建时间: 2019-08-31 23:21:48 大小:700.76 MB 文件数量:111 热度:4 最近下载:2022-11-15 19:37:03
    {"RARBG.com.txt": 34, "dads.army.s08e06.hr.pdtv.x264-deadpool.mkv": 591136161, "dads.army.s08e06.hr.pdtv.x264-deadpool.nfo": 3208}
创建时间: 2019-09-01 04:56:13 大小:563.75 MB 文件数量:3 热度:6 最近下载:2022-11-15 18:50:51
    {"Sample": {"sample-dads.army.s08e05.hr.pdtv.x264-deadpool.mkv": 10346379}, "RARBG.com.txt": 34, "dads.army.s08e05.hr.pdtv.x264-deadpool.mkv": 538910113, "dads.army.s08e05.hr.pdtv.x264-deadpool.nfo": 3253}
创建时间: 2019-09-01 09:40:21 大小:523.81 MB 文件数量:4 热度:4 最近下载:2022-11-15 19:42:22
    ... Version).mp3": 13848159, "00-Army Of Lovers - Le Remixed Docu ... Mix).mp3": 10899448, "00-Army Of Lovers - Le Remixed Docu ... mp3": 13730090, "14-My Army Of Lovers (Concrete Ghetto Mix ... Cancanpourbonbondepapa Mix).mp3": 17491752}, "01-Army Of Lovers - Le Grand Docu ...
创建时间: 2019-09-01 13:14:00 大小:559.01 MB 文件数量:62 热度:6 最近下载:2025-01-13 14:54:03
    {"RARBG.txt": 30, "RARBG_DO_NOT_MIRROR.exe": 99, "dads.army.the.lost.episodes.e01.720p.hdtv.x264-mtb.mkv": 582343013, "dads.army.the.lost.episodes.e01.720p.hdtv.x264-mtb.nfo": 12741}
创建时间: 2019-09-01 15:41:29 大小:555.38 MB 文件数量:4 热度:6 最近下载:2025-01-20 15:28:01
    {"German Army and Navy Uniforms & Insignia 1871-1918.pdf": 128699088}
创建时间: 2019-09-01 17:50:27 大小:122.74 MB 文件数量:1 热度:8 最近下载:2025-04-16 11:38:02